Location: Widewater Village at Stafford
(38.4893°N, 77.3783°W)
Time: 07:54:29
(UTC+00:00)

Tiangong - Visible Passes

Search period start: 28 November 2022 00:00
Search period end: 08 December 2022 00:00
Orbit: 385 x 394 km, 41.5° (Epoch: 28 November)

Date Brightness Start Highest point End Pass type
(mag) Time Alt. Az. Time Alt. Az. Time Alt. Az.
28 Nov -1.0 23:32:32 10° SW 23:35:01 34° S 23:35:01 34° S visible
29 Nov -0.4 22:35:05 10° SSW 22:37:39 22° SSE 22:39:53 12° E visible
30 Nov 0.7 00:11:10 10° WSW 00:12:12 19° WSW 00:12:12 19° WSW visible
30 Nov -2.1 23:13:12 10° WSW 23:16:22 68° SSE 23:17:01 50° E visible
01 Dec -1.3 22:15:24 10° SW 22:18:25 41° SSE 22:21:28 10° E visible
01 Dec -0.4 23:52:11 10° W 23:54:07 32° WNW 23:54:07 32° WNW visible
02 Dec -2.1 22:54:06 10° WSW 22:57:18 75° NNW 22:58:52 27° ENE visible
03 Dec -1.3 23:33:14 10° W 23:35:56 44° NNW 23:35:56 44° NNW visible
04 Dec -1.8 22:35:08 10° W 22:38:16 54° N 22:40:41 15° ENE visible
05 Dec 0.9 00:12:20 10° WNW 00:13:00 15° WNW 00:13:00 15° WNW visible
05 Dec -1.7 23:14:17 10° WNW 23:17:22 46° N 23:17:47 43° NNE visible
06 Dec -1.6 22:16:11 10° WNW 22:19:17 46° N 22:22:22 10° ENE visible
06 Dec -0.2 23:53:15 10° WNW 23:54:55 28° WNW 23:54:55 28° WNW visible
07 Dec -1.9 22:55:15 10° WNW 22:58:23 54° N 22:59:49 28° ENE visible
